Tracking 19476 objects as of 17-Jan-2019
HD Live streaming from Space Station
objects crossing your sky now

FLOCK 3P 61

Track FLOCK 3P 61 now!
10-day predictions
FLOCK 3P 61 is classified as:


NORAD ID: 42009
Int'l Code: 2017-008BP
Perigee: 493.0 km
Apogee: 502.9 km
Inclination: 97.4 °
Period: 94.4 minutes
Semi major axis: 6868 km
RCS: Unknown
Launch date: February 15, 2017
Source: United States (US)
Launch site: SRIHARIKOTA (SRI)
aabbcc
Your satellite tracking list
Your tracking list is empty




NASA's NSSDC Master Catalog

Two Line Element Set (TLE):
1 42009U 17008BP  19017.84400221  .00000926  00000-0  40007-4 0  9992
2 42009  97.4267  86.3566 0007189 350.6348   9.4754 15.24983728106791
Source of the keplerian elements: AFSPC